This is the latest recevied weather packets stored in our database for station/object EA3IK-1. If no packets are shown the sender has not sent any weather packets the latest 10 day(s).
| Time | Temp. | Humidity | Pressure | Rain* | Wind** | Luminosity | Snow |
|---|---|---|---|---|---|---|---|
| 1777075324 | 12.78° C | 68% | 1018.4 hPa | 0 mm | - | - | - |
| 1777074423 | 12.78° C | 68% | 1018.5 hPa | 0 mm | - | - | - |
| 1777073522 | 12.78° C | 68% | 1018.6 hPa | 0 mm | - | - | - |
| 1777072621 | 12.78° C | 66% | 1018.6 hPa | 0 mm | - | - | - |
| 1777071721 | 12.22° C | 67% | 1018.7 hPa | 0 mm | - | - | - |
| 1777070820 | 12.78° C | 68% | 1018.6 hPa | 0 mm | - | - | - |
| 1777069919 | 13.33° C | 69% | 1018.7 hPa | 0 mm | - | - | - |
| 1777069018 | 13.33° C | 68% | 1018.7 hPa | 0 mm | - | - | - |
| 1777068117 | 13.33° C | 68% | 1018.7 hPa | 0 mm | - | - | - |
| 1777067216 | 13.89° C | 69% | 1018.6 hPa | 0 mm | - | - | - |
| 1777066315 | 13.89° C | 69% | 1018.5 hPa | 0 mm | - | - | - |
| 1777065414 | 13.89° C | 70% | 1018.4 hPa | 0 mm | - | - | - |
| 1777064514 | 14.44° C | 70% | 1018.3 hPa | 0 mm | - | - | - |
| 1777063613 | 15° C | 71% | 1018.2 hPa | 0 mm | - | - | - |
| 1777062712 | 15° C | 70% | 1018.2 hPa | 0 mm | - | - | - |
| 1777061811 | 15.56° C | 70% | 1018.2 hPa | 0 mm | - | - | - |
| 1777060911 | 15.56° C | 70% | 1018 hPa | 0 mm | - | - | - |
| 1777060009 | 15.56° C | 69% | 1018 hPa | 0 mm | - | - | - |
| 1777059109 | 15.56° C | 67% | 1017.8 hPa | 0 mm | - | - | - |
| 1777058208 | 16.11° C | 66% | 1017.7 hPa | 0 mm | - | - | - |
| 1777057307 | 16.11° C | 66% | 1017.4 hPa | 0 mm | - | - | - |
| 1777056406 | 16.67° C | 65% | 1017.4 hPa | 0 mm | - | - | - |
| 1777055505 | 16.67° C | 65% | 1017.3 hPa | 0 mm | - | - | - |
| 1777054604 | 17.22° C | 66% | 1017.2 hPa | 0 mm | - | - | - |
| 1777053703 | 17.22° C | 67% | 1017.1 hPa | 0 mm | - | - | - |
* Rain latest hour (hover to see other rain measurements)
** Current wind speed in m/s (hover to see current wind gust speed)